CFG9VL EDDH-GCTS

Flight info

Callsign CFG9VL
Flight time 5h 4m
Altitude 32000
Route WSN4B WSN N125 SILQI N872 PAM/N0447F310 N872 CIV/N0449F320 DCT MEDIL/N0449F310 DCT KOVIN DCT NIDUV DCT KIHVI/N0453F330 UN872 ERIGA UZ218 FUJTI DCT BAKUP DCT BATAX DCT BEXAL UN866 KONBA
Aircraft A21N/M-SDE2E3FGHIRWXY/LB1

Departure

Time 2026-04-22 09:58
Airport Hamburg Helmut Schmidt Airport (EDDH)

Arrival

Time 2026-04-22 15:02
Airport Tenerife Sur Airport (GCTS)
Time Latitude Longitude Altitude Speed Heading
2026-04-22 09:01 53.63372 10.00336 54 ft 0 kts 86°
2026-04-22 09:50 53.63372 10.00323 52 ft 2 kts 86°
2026-04-22 09:50 53.63370 10.00281 48 ft 2 kts 86°
2026-04-22 09:50 53.63367 10.00245 51 ft 2 kts 57°
2026-04-22 09:50 53.63351 10.00230 47 ft 3 kts 356°
2026-04-22 09:51 53.63331 10.00233 51 ft 2 kts 356°
2026-04-22 09:54 53.63350 10.00231 54 ft 4 kts 356°
2026-04-22 09:54 53.63393 10.00226 54 ft 8 kts 356°
2026-04-22 09:54 53.63451 10.00218 54 ft 9 kts 348°
2026-04-22 09:54 53.63505 10.00162 54 ft 10 kts 320°
2026-04-22 09:55 53.63537 10.00118 55 ft 0 kts 320°
2026-04-22 09:55 53.63541 10.00112 55 ft 2 kts 320°
2026-04-22 09:55 53.63565 10.00079 57 ft 6 kts 320°
2026-04-22 09:56 53.63607 10.00019 51 ft 9 kts 307°
2026-04-22 09:56 53.63588 9.99940 50 ft 2 kts 232°
2026-04-22 09:56 53.63588 9.99939 50 ft 0 kts 232°
2026-04-22 09:57 53.63522 9.99804 55 ft 44 kts 230°
2026-04-22 09:57 53.63177 9.99104 52 ft 110 kts 230°
2026-04-22 09:57 53.62555 9.97839 53 ft 166 kts 231°
2026-04-22 09:57 53.61786 9.96316 583 ft 171 kts 233°
2026-04-22 09:58 53.61005 9.94751 1331 ft 178 kts 233°
2026-04-22 09:58 53.60195 9.93117 1841 ft 190 kts 234°
2026-04-22 09:58 53.59337 9.91324 2398 ft 202 kts 234°
2026-04-22 09:58 53.58442 9.89403 3062 ft 214 kts 234°
2026-04-22 09:59 53.57497 9.87416 3665 ft 224 kts 232°
2026-04-22 09:59 53.56565 9.85226 4197 ft 234 kts 245°
2026-04-22 09:59 53.55924 9.82601 4518 ft 252 kts 252°
2026-04-22 09:59 53.55316 9.79734 5002 ft 267 kts 252°
2026-04-22 10:00 53.54680 9.76758 5670 ft 273 kts 251°
2026-04-22 10:00 53.54024 9.73733 6406 ft 277 kts 251°
2026-04-22 10:00 53.53353 9.70656 7106 ft 282 kts 251°
2026-04-22 10:00 53.52672 9.67540 7806 ft 286 kts 251°
2026-04-22 10:01 53.51978 9.64387 8526 ft 289 kts 251°
2026-04-22 10:01 53.51274 9.61200 9233 ft 292 kts 251°
2026-04-22 10:01 53.50562 9.57988 9902 ft 295 kts 251°
2026-04-22 10:01 53.49841 9.54735 10569 ft 299 kts 251°
2026-04-22 10:02 53.49092 9.51362 10909 ft 317 kts 251°
2026-04-22 10:02 53.48299 9.47790 11164 ft 335 kts 251°
2026-04-22 10:02 53.47461 9.44025 11395 ft 353 kts 250°
2026-04-22 10:02 53.46575 9.40071 11618 ft 370 kts 250°
2026-04-22 10:03 53.45659 9.35995 11868 ft 385 kts 250°
2026-04-22 10:03 53.44709 9.31755 12378 ft 391 kts 250°
2026-04-22 10:03 53.43747 9.27467 12968 ft 395 kts 250°
2026-04-22 10:03 53.42758 9.23078 13586 ft 398 kts 250°
2026-04-22 10:04 53.41790 9.18774 14141 ft 402 kts 251°
2026-04-22 10:04 53.40799 9.14368 14639 ft 405 kts 251°
2026-04-22 10:04 53.39800 9.09934 15124 ft 409 kts 250°
2026-04-22 10:04 53.38787 9.05459 15617 ft 413 kts 250°
2026-04-22 10:05 53.37760 9.00941 16109 ft 416 kts 250°
2026-04-22 10:05 53.36721 8.96375 16615 ft 421 kts 250°
2026-04-22 10:05 53.35669 8.91766 17127 ft 424 kts 250°
2026-04-22 10:05 53.34971 8.88705 17457 ft 427 kts 250°
2026-04-22 10:06 53.34035 8.84581 17920 ft 430 kts 251°
2026-04-22 10:06 53.33000 8.79859 18409 ft 434 kts 251°
2026-04-22 10:06 53.31961 8.75087 18866 ft 438 kts 251°
2026-04-22 10:07 53.30907 8.70290 19289 ft 442 kts 251°
2026-04-22 10:07 53.29838 8.65457 19717 ft 445 kts 251°
2026-04-22 10:07 53.28782 8.60650 20139 ft 448 kts 251°
2026-04-22 10:07 53.27707 8.55736 20549 ft 451 kts 251°
2026-04-22 10:08 53.26627 8.50798 20970 ft 454 kts 252°
2026-04-22 10:08 53.25650 8.45768 21387 ft 457 kts 254°
2026-04-22 10:08 53.24695 8.40687 21786 ft 459 kts 254°
2026-04-22 10:08 53.23733 8.35582 22174 ft 463 kts 254°
2026-04-22 10:09 53.22763 8.30455 22553 ft 465 kts 254°
2026-04-22 10:09 53.21783 8.25284 22931 ft 468 kts 254°
2026-04-22 10:09 53.20797 8.20088 23308 ft 471 kts 254°
2026-04-22 10:09 53.19801 8.14857 23680 ft 474 kts 253°
2026-04-22 10:10 53.18800 8.09603 24027 ft 477 kts 254°
2026-04-22 10:10 53.17801 8.04309 24364 ft 479 kts 254°
2026-04-22 10:10 53.16802 7.99003 24696 ft 481 kts 254°
2026-04-22 10:10 53.15796 7.93677 25021 ft 483 kts 253°
2026-04-22 10:11 53.14780 7.88318 25370 ft 485 kts 253°
2026-04-22 10:11 53.13749 7.82962 25705 ft 487 kts 253°
2026-04-22 10:11 53.12726 7.77645 26020 ft 489 kts 253°
2026-04-22 10:11 53.11690 7.72251 26334 ft 491 kts 253°
2026-04-22 10:12 53.10646 7.66824 26641 ft 493 kts 253°
2026-04-22 10:12 53.09601 7.61395 27003 ft 493 kts 253°
2026-04-22 10:12 53.08551 7.55971 27418 ft 492 kts 253°
2026-04-22 10:12 53.07503 7.50563 27831 ft 490 kts 253°
2026-04-22 10:13 53.06456 7.45171 28236 ft 489 kts 253°
2026-04-22 10:13 53.05750 7.41534 28512 ft 488 kts 253°
2026-04-22 10:13 53.04709 7.36174 28877 ft 488 kts 253°
2026-04-22 10:13 53.03675 7.30879 29279 ft 486 kts 253°
2026-04-22 10:14 53.02629 7.25548 29640 ft 486 kts 252°
2026-04-22 10:14 53.01575 7.20216 30013 ft 485 kts 252°
2026-04-22 10:14 53.00505 7.14912 30366 ft 484 kts 252°
2026-04-22 10:14 52.99420 7.09620 30669 ft 483 kts 252°
2026-04-22 10:15 52.98338 7.04346 30944 ft 482 kts 252°
2026-04-22 10:15 52.97267 6.99090 31253 ft 481 kts 252°
2026-04-22 10:15 52.96192 6.93833 31459 ft 480 kts 252°
2026-04-22 10:15 52.95121 6.88597 31487 ft 480 kts 252°
2026-04-22 10:16 52.92975 6.78141 31473 ft 479 kts 252°
2026-04-22 10:16 52.90815 6.67683 31454 ft 479 kts 252°
2026-04-22 10:17 52.88644 6.57257 31459 ft 479 kts 251°
2026-04-22 10:17 52.86454 6.46835 31451 ft 479 kts 251°
2026-04-22 10:18 52.84267 6.36436 31450 ft 478 kts 251°
2026-04-22 10:18 52.82070 6.26050 31441 ft 478 kts 251°
2026-04-22 10:19 52.79861 6.15683 31441 ft 478 kts 251°
2026-04-22 10:19 52.77649 6.05317 31431 ft 478 kts 251°
2026-04-22 10:20 52.75444 5.95049 31434 ft 477 kts 251°
2026-04-22 10:20 52.73132 5.84792 31427 ft 477 kts 245°
2026-04-22 10:21 52.71444 5.80082 31426 ft 477 kts 233°
2026-04-22 10:21 52.69338 5.75871 31437 ft 476 kts 228°
2026-04-22 10:21 52.64927 5.67718 31428 ft 475 kts 227°
2026-04-22 10:22 52.60544 5.59571 31435 ft 475 kts 228°
2026-04-22 10:22 52.56185 5.51410 31437 ft 474 kts 228°
2026-04-22 10:23 52.51830 5.43285 31441 ft 474 kts 228°
2026-04-22 10:23 52.47472 5.35172 31442 ft 473 kts 228°
2026-04-22 10:24 52.43172 5.27168 31435 ft 473 kts 228°
2026-04-22 10:24 52.38858 5.19160 31427 ft 472 kts 228°
2026-04-22 10:25 52.34422 5.11238 31430 ft 471 kts 222°
2026-04-22 10:25 52.31829 5.07985 31431 ft 470 kts 210°
2026-04-22 10:25 52.28956 5.05468 31434 ft 469 kts 205°
2026-04-22 10:26 52.23068 5.00886 31438 ft 468 kts 204°
2026-04-22 10:26 52.17193 4.96273 31431 ft 468 kts 205°
2026-04-22 10:27 52.11334 4.91636 31427 ft 468 kts 205°
2026-04-22 10:27 52.05477 4.87016 31414 ft 468 kts 205°
2026-04-22 10:28 51.99620 4.82400 31411 ft 468 kts 205°
2026-04-22 10:28 51.93760 4.77796 31402 ft 467 kts 205°
2026-04-22 10:29 51.87944 4.73248 31411 ft 467 kts 205°
2026-04-22 10:29 51.82088 4.68676 31400 ft 467 kts 206°
2026-04-22 10:30 51.76232 4.64122 31406 ft 467 kts 206°
2026-04-22 10:30 51.70377 4.59571 31394 ft 467 kts 206°
2026-04-22 10:31 51.64514 4.55031 31387 ft 467 kts 206°
2026-04-22 10:31 51.58652 4.50519 31373 ft 467 kts 206°
2026-04-22 10:32 51.52786 4.46012 31383 ft 467 kts 206°
2026-04-22 10:32 51.46923 4.41531 31381 ft 467 kts 206°
2026-04-22 10:33 51.41091 4.37083 31384 ft 466 kts 206°
2026-04-22 10:33 51.35197 4.32598 31378 ft 466 kts 206°
2026-04-22 10:34 51.29373 4.28171 31394 ft 466 kts 206°
2026-04-22 10:34 51.23520 4.23725 31399 ft 466 kts 206°
2026-04-22 10:35 51.17662 4.19298 31405 ft 466 kts 206°
2026-04-22 10:35 51.11606 4.15586 31395 ft 467 kts 199°
2026-04-22 10:36 51.05446 4.12316 31406 ft 467 kts 200°
2026-04-22 10:36 51.02369 4.10648 31590 ft 467 kts 200°
2026-04-22 10:36 50.99293 4.08976 31849 ft 466 kts 200°
2026-04-22 10:37 50.96215 4.07305 32080 ft 466 kts 200°
2026-04-22 10:37 50.90080 4.03970 32401 ft 465 kts 201°
2026-04-22 10:38 50.84082 4.00347 32378 ft 464 kts 204°
2026-04-22 10:38 50.78102 3.96502 32361 ft 464 kts 205°
2026-04-22 10:39 50.72114 3.92682 32347 ft 464 kts 205°
2026-04-22 10:39 50.66124 3.88852 32342 ft 465 kts 205°
2026-04-22 10:40 50.60127 3.85022 32340 ft 465 kts 205°
2026-04-22 10:40 50.54163 3.81082 32334 ft 464 kts 207°
2026-04-22 10:41 50.48239 3.77035 32325 ft 465 kts 207°
2026-04-22 10:41 50.42307 3.72996 32319 ft 465 kts 207°
2026-04-22 10:42 50.36373 3.68972 32312 ft 465 kts 208°
2026-04-22 10:42 50.30476 3.64987 32308 ft 465 kts 208°
2026-04-22 10:43 50.24498 3.60945 32301 ft 465 kts 208°
2026-04-22 10:43 50.18591 3.56972 32300 ft 465 kts 208°
2026-04-22 10:44 50.12649 3.52982 32298 ft 465 kts 208°
2026-04-22 10:44 50.06701 3.48999 32287 ft 465 kts 209°
2026-04-22 10:45 50.00749 3.45028 32279 ft 465 kts 209°
2026-04-22 10:45 49.94798 3.41068 32276 ft 465 kts 209°
2026-04-22 10:46 49.88847 3.37108 32271 ft 465 kts 210°
2026-04-22 10:46 49.82886 3.33159 32270 ft 466 kts 210°
2026-04-22 10:47 49.76923 3.29222 32260 ft 466 kts 210°
2026-04-22 10:47 49.70957 3.25289 32258 ft 466 kts 210°
2026-04-22 10:48 49.65027 3.21395 32256 ft 466 kts 210°
2026-04-22 10:48 49.59064 3.17487 32250 ft 466 kts 211°
2026-04-22 10:49 49.53116 3.13539 32241 ft 462 kts 214°
2026-04-22 10:49 49.50378 3.11064 32249 ft 451 kts 224°
2026-04-22 10:49 49.48038 3.07948 32239 ft 438 kts 235°
2026-04-22 10:49 49.46177 3.04335 32242 ft 426 kts 245°
2026-04-22 10:50 49.44688 3.00440 32242 ft 421 kts 249°
2026-04-22 10:50 49.41848 2.92573 32246 ft 421 kts 249°
2026-04-22 10:51 49.38954 2.84742 32239 ft 421 kts 248°
2026-04-22 10:51 49.36048 2.76948 32231 ft 420 kts 248°
2026-04-22 10:52 49.33211 2.69136 32227 ft 419 kts 249°
2026-04-22 10:52 49.30438 2.61271 32228 ft 418 kts 249°
2026-04-22 10:53 49.27803 2.53770 32212 ft 418 kts 249°
2026-04-22 10:53 49.25038 2.45932 32222 ft 418 kts 249°
2026-04-22 10:54 49.22274 2.38125 32223 ft 417 kts 249°
2026-04-22 10:54 49.19493 2.30324 32223 ft 418 kts 248°
2026-04-22 10:55 49.16649 2.22630 32226 ft 418 kts 248°
2026-04-22 10:55 49.13781 2.14908 32231 ft 418 kts 248°
2026-04-22 10:56 49.10916 2.07184 32228 ft 418 kts 248°
2026-04-22 10:56 49.08289 1.99327 32229 ft 413 kts 252°
2026-04-22 10:57 49.05904 1.91340 32226 ft 413 kts 252°
2026-04-22 10:57 49.03918 1.84710 32225 ft 413 kts 252°
2026-04-22 10:58 49.01517 1.76744 32217 ft 414 kts 251°
2026-04-22 10:58 48.99104 1.68775 32216 ft 414 kts 251°
2026-04-22 10:59 48.96682 1.60801 32200 ft 415 kts 251°
2026-04-22 10:59 48.94252 1.52843 32197 ft 415 kts 251°
2026-04-22 11:00 48.91814 1.44890 32199 ft 414 kts 251°
2026-04-22 11:00 48.89384 1.36989 32198 ft 415 kts 251°
2026-04-22 11:01 48.86935 1.29042 32200 ft 415 kts 251°
2026-04-22 11:01 48.84486 1.21102 32199 ft 415 kts 250°
2026-04-22 11:02 48.82031 1.13162 32200 ft 416 kts 250°
2026-04-22 11:02 48.79559 1.05216 32185 ft 416 kts 250°
2026-04-22 11:03 48.77082 0.97277 32178 ft 416 kts 250°
2026-04-22 11:03 48.74579 0.89356 32164 ft 418 kts 248°
2026-04-22 11:04 48.71592 0.81742 32166 ft 420 kts 244°
2026-04-22 11:04 48.68524 0.74206 32157 ft 421 kts 244°
2026-04-22 11:05 48.65462 0.66675 32154 ft 420 kts 244°
2026-04-22 11:05 48.62415 0.59189 32139 ft 420 kts 243°
2026-04-22 11:06 48.59345 0.51671 32141 ft 420 kts 243°
2026-04-22 11:06 48.56267 0.44153 32136 ft 420 kts 243°
2026-04-22 11:07 48.53188 0.36653 32134 ft 420 kts 243°
2026-04-22 11:07 48.50105 0.29162 32126 ft 420 kts 243°
2026-04-22 11:08 48.47015 0.21677 32125 ft 420 kts 243°
2026-04-22 11:08 48.43918 0.14198 32126 ft 420 kts 243°
2026-04-22 11:09 48.40821 0.06736 32120 ft 420 kts 243°
2026-04-22 11:09 48.37718 -0.00718 32120 ft 420 kts 242°
2026-04-22 11:10 48.34449 -0.07962 32119 ft 423 kts 238°
2026-04-22 11:10 48.30901 -0.15091 32112 ft 423 kts 238°
2026-04-22 11:11 48.27394 -0.22120 32113 ft 423 kts 238°
2026-04-22 11:11 48.23850 -0.29190 32105 ft 423 kts 237°
2026-04-22 11:12 48.20268 -0.36202 32100 ft 424 kts 237°
2026-04-22 11:12 48.16680 -0.43214 32097 ft 424 kts 237°
2026-04-22 11:13 48.13090 -0.50217 32096 ft 424 kts 237°
2026-04-22 11:13 48.09493 -0.57211 32103 ft 424 kts 237°
2026-04-22 11:14 48.05888 -0.64208 32092 ft 424 kts 237°
2026-04-22 11:14 48.02281 -0.71189 32101 ft 424 kts 236°
2026-04-22 11:15 47.98670 -0.78163 32113 ft 424 kts 236°
2026-04-22 11:15 47.95052 -0.85129 32109 ft 424 kts 236°
2026-04-22 11:16 47.91428 -0.92078 32100 ft 424 kts 236°
2026-04-22 11:16 47.87827 -0.98981 32088 ft 424 kts 236°
2026-04-22 11:17 47.84193 -1.05898 32080 ft 424 kts 236°
2026-04-22 11:17 47.80558 -1.12815 32065 ft 424 kts 236°
2026-04-22 11:18 47.76934 -1.19738 32060 ft 424 kts 236°
2026-04-22 11:18 47.73297 -1.26643 32054 ft 424 kts 236°
2026-04-22 11:19 47.69660 -1.33526 32053 ft 424 kts 236°
2026-04-22 11:19 47.66017 -1.40396 32047 ft 423 kts 236°
2026-04-22 11:20 47.62361 -1.47240 32046 ft 423 kts 236°
2026-04-22 11:20 47.58620 -1.53986 32049 ft 425 kts 232°
2026-04-22 11:21 47.54661 -1.60521 32048 ft 425 kts 232°
2026-04-22 11:21 47.50723 -1.66984 32028 ft 426 kts 232°
2026-04-22 11:22 47.46764 -1.73485 32027 ft 426 kts 232°
2026-04-22 11:22 47.42786 -1.79985 32035 ft 426 kts 231°
2026-04-22 11:23 47.38802 -1.86479 32026 ft 426 kts 231°
2026-04-22 11:23 47.34674 -1.92786 32019 ft 430 kts 223°
2026-04-22 11:24 47.29650 -1.97678 32024 ft 435 kts 215°
2026-04-22 11:24 47.24456 -2.02246 32024 ft 434 kts 215°
2026-04-22 11:25 47.19286 -2.06844 32019 ft 434 kts 215°
2026-04-22 11:25 47.14126 -2.11446 32015 ft 433 kts 215°
2026-04-22 11:26 47.09006 -2.16002 32014 ft 433 kts 215°
2026-04-22 11:26 47.03844 -2.20572 32010 ft 433 kts 215°
2026-04-22 11:27 46.98693 -2.25127 32002 ft 432 kts 215°
2026-04-22 11:27 46.93542 -2.29678 31925 ft 432 kts 214°
2026-04-22 11:28 46.88381 -2.34219 31978 ft 433 kts 214°
2026-04-22 11:28 46.83221 -2.38756 31989 ft 433 kts 214°
2026-04-22 11:29 46.78059 -2.43287 31988 ft 432 kts 214°
2026-04-22 11:29 46.72899 -2.47803 31989 ft 432 kts 214°
2026-04-22 11:30 46.67744 -2.52311 31985 ft 432 kts 214°
2026-04-22 11:30 46.62620 -2.56773 31986 ft 431 kts 214°
2026-04-22 11:31 46.57470 -2.61250 31980 ft 431 kts 214°
2026-04-22 11:31 46.52323 -2.65719 31978 ft 431 kts 214°
2026-04-22 11:32 46.47172 -2.70171 31979 ft 431 kts 214°
2026-04-22 11:32 46.42016 -2.74611 31980 ft 430 kts 214°
2026-04-22 11:33 46.36868 -2.79047 31971 ft 430 kts 214°
2026-04-22 11:33 46.31730 -2.83469 31972 ft 430 kts 214°
2026-04-22 11:34 46.26585 -2.87889 31973 ft 429 kts 214°
2026-04-22 11:34 46.21472 -2.92353 31968 ft 429 kts 214°
2026-04-22 11:35 46.16361 -2.96814 31969 ft 429 kts 214°
2026-04-22 11:35 46.11277 -3.01231 31969 ft 429 kts 214°
2026-04-22 11:36 46.06165 -3.05660 31971 ft 429 kts 214°
2026-04-22 11:36 46.01042 -3.10067 31965 ft 429 kts 214°
2026-04-22 11:37 45.95924 -3.14471 31973 ft 429 kts 214°
2026-04-22 11:37 45.90810 -3.18883 31970 ft 428 kts 214°
2026-04-22 11:38 45.85700 -3.23283 31964 ft 428 kts 214°
2026-04-22 11:38 45.78027 -3.29853 31969 ft 428 kts 214°
2026-04-22 11:39 45.72916 -3.34223 31969 ft 428 kts 214°
2026-04-22 11:39 45.67835 -3.38561 31968 ft 428 kts 214°
2026-04-22 11:40 45.62723 -3.42911 31960 ft 428 kts 214°
2026-04-22 11:40 45.57609 -3.47255 31964 ft 427 kts 214°
2026-04-22 11:41 45.52494 -3.51583 31966 ft 428 kts 214°
2026-04-22 11:41 45.47376 -3.55906 31970 ft 427 kts 214°
2026-04-22 11:42 45.42255 -3.60215 31965 ft 427 kts 214°
2026-04-22 11:42 45.37146 -3.64523 31970 ft 427 kts 214°
2026-04-22 11:43 45.32029 -3.68826 31982 ft 427 kts 214°
2026-04-22 11:43 45.27772 -3.72397 31980 ft 427 kts 214°
2026-04-22 11:44 45.22648 -3.76701 31976 ft 427 kts 214°
2026-04-22 11:44 45.17516 -3.80987 31987 ft 427 kts 214°
2026-04-22 11:45 45.12384 -3.85251 31988 ft 427 kts 214°
2026-04-22 11:45 45.07288 -3.89477 31993 ft 427 kts 214°
2026-04-22 11:46 45.02159 -3.93730 31997 ft 427 kts 214°
2026-04-22 11:46 44.97019 -3.97984 32000 ft 428 kts 214°
2026-04-22 11:47 44.91887 -4.02223 32007 ft 427 kts 214°
2026-04-22 11:47 44.86750 -4.06455 32009 ft 427 kts 214°
2026-04-22 11:48 44.81612 -4.10687 32016 ft 427 kts 214°
2026-04-22 11:48 44.76477 -4.14901 32012 ft 427 kts 214°
2026-04-22 11:49 44.71347 -4.19120 32017 ft 427 kts 214°
2026-04-22 11:49 44.66206 -4.23323 32018 ft 427 kts 214°
2026-04-22 11:50 44.61070 -4.27508 32027 ft 427 kts 214°
2026-04-22 11:50 44.55928 -4.31696 32027 ft 427 kts 214°
2026-04-22 11:51 44.50815 -4.35848 32029 ft 427 kts 214°
2026-04-22 11:51 44.45671 -4.40015 32033 ft 427 kts 213°
2026-04-22 11:52 44.40535 -4.44203 32037 ft 426 kts 214°
2026-04-22 11:52 44.35455 -4.48499 32042 ft 426 kts 215°
2026-04-22 11:53 44.30389 -4.52792 32040 ft 426 kts 215°
2026-04-22 11:53 44.25321 -4.57089 32044 ft 426 kts 215°
2026-04-22 11:54 44.20256 -4.61368 32044 ft 426 kts 214°
2026-04-22 11:54 44.15226 -4.65607 32043 ft 425 kts 214°
2026-04-22 11:55 44.10150 -4.69866 32047 ft 425 kts 214°
2026-04-22 11:55 44.05084 -4.74114 32046 ft 425 kts 214°
2026-04-22 11:56 44.00019 -4.78342 32052 ft 425 kts 214°
2026-04-22 11:56 43.94958 -4.82573 32055 ft 424 kts 214°
2026-04-22 11:57 43.89887 -4.86794 32052 ft 424 kts 214°
2026-04-22 11:57 43.84832 -4.90998 32054 ft 424 kts 214°
2026-04-22 11:58 43.79808 -4.95166 32061 ft 423 kts 214°
2026-04-22 11:58 43.74752 -4.99351 32059 ft 423 kts 214°
2026-04-22 11:59 43.69694 -5.03532 32064 ft 423 kts 214°
2026-04-22 11:59 43.64640 -5.07702 32057 ft 423 kts 214°
2026-04-22 12:00 43.59586 -5.11859 32048 ft 423 kts 214°
2026-04-22 12:00 43.54529 -5.16015 32061 ft 423 kts 214°
2026-04-22 12:01 43.49475 -5.20157 32056 ft 423 kts 214°
2026-04-22 12:01 43.44448 -5.24273 32045 ft 423 kts 213°
2026-04-22 12:02 43.39383 -5.28408 32058 ft 423 kts 213°
2026-04-22 12:02 43.34322 -5.32534 32047 ft 423 kts 213°
2026-04-22 12:03 43.29254 -5.36654 32033 ft 423 kts 213°
2026-04-22 12:03 43.24191 -5.40765 32043 ft 422 kts 213°
2026-04-22 12:04 43.19132 -5.44861 32035 ft 422 kts 213°
2026-04-22 12:04 43.14079 -5.48945 32031 ft 422 kts 213°
2026-04-22 12:05 43.09028 -5.53022 32034 ft 421 kts 213°
2026-04-22 12:05 43.04014 -5.57065 32024 ft 421 kts 213°
2026-04-22 12:06 42.98958 -5.61130 32025 ft 421 kts 213°
2026-04-22 12:06 42.93907 -5.65180 32012 ft 421 kts 213°
2026-04-22 12:07 42.88852 -5.69226 32022 ft 421 kts 213°
2026-04-22 12:07 42.83801 -5.73261 32033 ft 421 kts 213°
2026-04-22 12:08 42.78748 -5.77297 32023 ft 421 kts 213°
2026-04-22 12:08 42.73693 -5.81300 32033 ft 421 kts 212°
2026-04-22 12:09 42.68642 -5.85329 32038 ft 420 kts 213°
2026-04-22 12:09 42.63614 -5.89325 32035 ft 420 kts 212°
2026-04-22 12:10 42.58558 -5.93327 32034 ft 420 kts 212°
2026-04-22 12:10 42.53504 -5.97317 32031 ft 421 kts 212°
2026-04-22 12:11 42.48447 -6.01304 32023 ft 421 kts 212°
2026-04-22 12:11 42.43377 -6.05290 32015 ft 421 kts 212°
2026-04-22 12:12 42.38323 -6.09271 32013 ft 420 kts 212°
2026-04-22 12:12 42.33257 -6.13248 32013 ft 421 kts 212°
2026-04-22 12:13 42.28218 -6.17195 32014 ft 421 kts 212°
2026-04-22 12:13 42.23157 -6.21160 32015 ft 421 kts 212°
2026-04-22 12:14 42.18077 -6.25122 32019 ft 421 kts 212°
2026-04-22 12:14 42.12993 -6.29079 32018 ft 421 kts 212°
2026-04-22 12:15 42.07944 -6.33005 32020 ft 421 kts 212°
2026-04-22 12:15 42.02873 -6.36936 32021 ft 421 kts 212°
2026-04-22 12:16 41.97787 -6.40872 32023 ft 422 kts 212°
2026-04-22 12:16 41.92702 -6.44801 32033 ft 422 kts 212°
2026-04-22 12:17 41.87610 -6.48726 32031 ft 422 kts 211°
2026-04-22 12:17 41.82524 -6.52642 32028 ft 422 kts 211°
2026-04-22 12:18 41.77431 -6.56587 32098 ft 422 kts 214°
2026-04-22 12:18 41.74989 -6.58784 32331 ft 422 kts 216°
2026-04-22 12:18 41.72585 -6.61023 32593 ft 421 kts 216°
2026-04-22 12:19 41.70180 -6.63268 32835 ft 421 kts 216°
2026-04-22 12:19 41.67775 -6.65509 33034 ft 422 kts 216°
2026-04-22 12:19 41.62943 -6.69991 33058 ft 422 kts 216°
2026-04-22 12:20 41.58120 -6.74453 33031 ft 422 kts 216°
2026-04-22 12:20 41.53327 -6.78878 33029 ft 421 kts 216°
2026-04-22 12:21 41.48496 -6.83328 33025 ft 422 kts 216°
2026-04-22 12:21 41.43666 -6.87771 33025 ft 422 kts 216°
2026-04-22 12:22 41.38833 -6.92208 33024 ft 422 kts 216°
2026-04-22 12:22 41.33992 -6.96644 33024 ft 422 kts 216°
2026-04-22 12:23 41.29154 -7.01069 33027 ft 422 kts 216°
2026-04-22 12:23 41.24307 -7.05495 33024 ft 423 kts 216°
2026-04-22 12:24 41.19450 -7.09912 33020 ft 423 kts 215°
2026-04-22 12:24 41.14606 -7.14323 33023 ft 423 kts 216°
2026-04-22 12:25 41.09750 -7.18736 33020 ft 422 kts 215°
2026-04-22 12:25 41.04898 -7.23134 33028 ft 423 kts 215°
2026-04-22 12:26 41.00041 -7.27528 33028 ft 423 kts 215°
2026-04-22 12:26 40.95185 -7.31913 33033 ft 423 kts 215°
2026-04-22 12:27 40.90322 -7.36302 33031 ft 422 kts 215°
2026-04-22 12:27 40.85495 -7.40649 33024 ft 422 kts 215°
2026-04-22 12:28 40.81427 -7.44306 33022 ft 422 kts 215°
2026-04-22 12:28 40.76566 -7.48662 33021 ft 422 kts 215°
2026-04-22 12:29 40.70912 -7.53721 33025 ft 422 kts 215°
2026-04-22 12:29 40.66050 -7.58064 33027 ft 422 kts 215°
2026-04-22 12:30 40.59541 -7.63865 33025 ft 422 kts 215°
2026-04-22 12:31 40.54710 -7.68162 33023 ft 422 kts 215°
2026-04-22 12:31 40.49844 -7.72484 33019 ft 422 kts 215°
2026-04-22 12:32 40.44980 -7.76797 33030 ft 422 kts 215°
2026-04-22 12:32 40.37681 -7.83252 33029 ft 421 kts 215°
2026-04-22 12:33 40.32818 -7.87544 33029 ft 421 kts 216°
2026-04-22 12:33 40.27954 -7.91830 33023 ft 421 kts 216°
2026-04-22 12:34 40.23094 -7.96101 33014 ft 420 kts 216°
2026-04-22 12:34 40.18244 -8.00361 33024 ft 419 kts 216°
2026-04-22 12:35 40.13400 -8.04608 33028 ft 419 kts 216°
2026-04-22 12:35 40.08553 -8.08852 33020 ft 420 kts 216°
2026-04-22 12:36 40.03696 -8.13090 33034 ft 420 kts 216°
2026-04-22 12:36 39.98831 -8.17330 33037 ft 420 kts 216°
2026-04-22 12:37 39.94000 -8.21533 33029 ft 420 kts 216°
2026-04-22 12:37 39.89140 -8.25754 33024 ft 419 kts 216°
2026-04-22 12:38 39.84276 -8.29973 33027 ft 420 kts 216°
2026-04-22 12:38 39.79424 -8.34175 33041 ft 419 kts 216°
2026-04-22 12:39 39.72135 -8.40471 33037 ft 419 kts 216°
2026-04-22 12:40 39.67283 -8.44655 33036 ft 418 kts 216°
2026-04-22 12:40 39.62430 -8.48832 33036 ft 418 kts 216°
2026-04-22 12:41 39.57579 -8.53000 33035 ft 418 kts 216°
2026-04-22 12:41 39.52722 -8.57166 33037 ft 418 kts 216°
2026-04-22 12:42 39.47862 -8.61325 33034 ft 418 kts 215°
2026-04-22 12:42 39.43034 -8.65454 33040 ft 418 kts 216°
2026-04-22 12:43 39.38146 -8.69625 33040 ft 418 kts 215°
2026-04-22 12:43 39.33322 -8.73731 33042 ft 418 kts 215°
2026-04-22 12:44 39.28468 -8.77862 33037 ft 417 kts 215°
2026-04-22 12:44 39.23616 -8.81981 33032 ft 417 kts 215°
2026-04-22 12:45 39.18767 -8.86091 33041 ft 417 kts 215°
2026-04-22 12:45 39.13946 -8.90170 33040 ft 417 kts 215°
2026-04-22 12:46 39.09088 -8.94272 33047 ft 417 kts 215°
2026-04-22 12:46 39.04238 -8.98359 33047 ft 417 kts 215°
2026-04-22 12:47 38.99388 -9.02441 33051 ft 416 kts 215°
2026-04-22 12:47 38.94545 -9.06512 33055 ft 416 kts 215°
2026-04-22 12:48 38.89692 -9.10585 33053 ft 416 kts 215°
2026-04-22 12:48 38.84842 -9.14648 33029 ft 416 kts 215°
2026-04-22 12:49 38.80000 -9.18700 33023 ft 415 kts 215°
2026-04-22 12:49 38.75161 -9.22743 33025 ft 415 kts 215°
2026-04-22 12:50 38.70313 -9.26781 33050 ft 415 kts 215°
2026-04-22 12:50 38.65469 -9.30807 33050 ft 415 kts 215°
2026-04-22 12:51 38.60657 -9.34799 33055 ft 414 kts 215°
2026-04-22 12:51 38.55823 -9.38811 33055 ft 414 kts 215°
2026-04-22 12:52 38.50986 -9.42817 33053 ft 414 kts 215°
2026-04-22 12:52 38.46151 -9.46815 33051 ft 414 kts 215°
2026-04-22 12:53 38.41321 -9.50804 33051 ft 413 kts 215°
2026-04-22 12:53 38.36490 -9.54779 33057 ft 413 kts 215°
2026-04-22 12:54 38.31663 -9.58752 33048 ft 413 kts 215°
2026-04-22 12:54 38.26834 -9.62720 33050 ft 412 kts 215°
2026-04-22 12:55 38.22047 -9.66648 33052 ft 412 kts 215°
2026-04-22 12:55 38.17231 -9.70594 33048 ft 411 kts 215°
2026-04-22 12:56 38.12423 -9.74526 33046 ft 411 kts 215°
2026-04-22 12:56 38.07611 -9.78455 33054 ft 411 kts 215°
2026-04-22 12:57 38.02800 -9.82372 33055 ft 411 kts 215°
2026-04-22 12:57 37.97991 -9.86286 33051 ft 410 kts 215°
2026-04-22 12:58 37.93189 -9.90185 33054 ft 410 kts 215°
2026-04-22 12:58 37.88384 -9.94082 33053 ft 410 kts 215°
2026-04-22 12:59 37.83572 -9.97983 33048 ft 410 kts 215°
2026-04-22 12:59 37.78771 -10.01868 33052 ft 410 kts 214°
2026-04-22 13:00 37.74000 -10.05721 33049 ft 409 kts 214°
2026-04-22 13:00 37.69204 -10.09587 33050 ft 409 kts 214°
2026-04-22 13:01 37.64406 -10.13450 33052 ft 409 kts 214°
2026-04-22 13:01 37.59611 -10.17302 33052 ft 409 kts 214°
2026-04-22 13:02 37.54812 -10.21151 33049 ft 409 kts 214°
2026-04-22 13:02 37.50012 -10.24999 33052 ft 409 kts 214°
2026-04-22 13:03 37.45206 -10.28843 33050 ft 409 kts 214°
2026-04-22 13:03 37.40397 -10.32684 33046 ft 409 kts 214°
2026-04-22 13:04 37.35620 -10.36491 33049 ft 409 kts 214°
2026-04-22 13:04 37.30802 -10.40331 33048 ft 409 kts 214°
2026-04-22 13:05 37.25988 -10.44155 33045 ft 409 kts 214°
2026-04-22 13:05 37.21179 -10.47971 33050 ft 409 kts 214°
2026-04-22 13:06 37.16365 -10.51786 33046 ft 409 kts 214°
2026-04-22 13:06 37.11553 -10.55592 33046 ft 409 kts 214°
2026-04-22 13:07 37.06744 -10.59393 33044 ft 409 kts 214°
2026-04-22 13:07 37.01927 -10.63199 33043 ft 409 kts 214°
2026-04-22 13:08 36.97113 -10.66990 33043 ft 409 kts 214°
2026-04-22 13:08 36.92329 -10.70754 33045 ft 409 kts 214°
2026-04-22 13:09 36.87512 -10.74540 33043 ft 409 kts 214°
2026-04-22 13:09 36.82694 -10.78322 33042 ft 409 kts 214°
2026-04-22 13:10 36.77874 -10.82098 33042 ft 409 kts 214°
2026-04-22 13:10 36.73045 -10.85871 33043 ft 409 kts 214°
2026-04-22 13:11 36.68222 -10.89635 33042 ft 409 kts 214°
2026-04-22 13:11 36.63433 -10.93367 33040 ft 409 kts 214°
2026-04-22 13:12 36.58605 -10.97125 33040 ft 409 kts 214°
2026-04-22 13:12 36.53778 -11.00878 33040 ft 409 kts 214°
2026-04-22 13:13 36.48953 -11.04623 33041 ft 409 kts 214°
2026-04-22 13:13 36.44117 -11.08367 33038 ft 409 kts 214°
2026-04-22 13:14 36.39285 -11.12105 33041 ft 409 kts 214°
2026-04-22 13:14 36.34453 -11.15840 33043 ft 409 kts 214°
2026-04-22 13:15 36.29620 -11.19566 33037 ft 409 kts 214°
2026-04-22 13:15 36.25600 -11.22664 33038 ft 409 kts 214°
2026-04-22 13:16 36.19973 -11.26992 33041 ft 409 kts 214°
2026-04-22 13:16 36.15918 -11.30109 33037 ft 409 kts 214°
2026-04-22 13:17 36.11105 -11.33798 33037 ft 409 kts 214°
2026-04-22 13:17 36.06260 -11.37511 33033 ft 409 kts 214°
2026-04-22 13:18 36.01418 -11.41215 33034 ft 409 kts 214°
2026-04-22 13:18 35.96589 -11.44937 33031 ft 409 kts 216°
2026-04-22 13:19 35.91947 -11.48983 33042 ft 408 kts 217°
2026-04-22 13:19 35.87324 -11.53057 33033 ft 408 kts 217°
2026-04-22 13:20 35.82697 -11.57118 33040 ft 408 kts 217°
2026-04-22 13:20 35.78093 -11.61142 33036 ft 409 kts 217°
2026-04-22 13:21 35.73457 -11.65195 33023 ft 409 kts 217°
2026-04-22 13:21 35.68812 -11.69252 33035 ft 409 kts 217°
2026-04-22 13:22 35.64173 -11.73302 33035 ft 409 kts 217°
2026-04-22 13:22 35.59532 -11.77346 33035 ft 409 kts 217°
2026-04-22 13:23 35.54885 -11.81390 33034 ft 409 kts 217°
2026-04-22 13:23 35.50270 -11.85399 33035 ft 409 kts 217°
2026-04-22 13:24 35.45633 -11.89429 33029 ft 408 kts 217°
2026-04-22 13:24 35.40987 -11.93460 33036 ft 408 kts 217°
2026-04-22 13:25 35.36347 -11.97473 33035 ft 408 kts 217°
2026-04-22 13:25 35.31702 -12.01483 33032 ft 408 kts 217°
2026-04-22 13:26 35.27059 -12.05488 33035 ft 408 kts 217°
2026-04-22 13:26 35.22411 -12.09492 33033 ft 408 kts 217°
2026-04-22 13:27 35.17769 -12.13485 33032 ft 408 kts 217°
2026-04-22 13:27 35.13121 -12.17475 33036 ft 408 kts 217°
2026-04-22 13:28 35.08467 -12.21465 33035 ft 409 kts 217°
2026-04-22 13:28 35.03841 -12.25426 33034 ft 409 kts 217°
2026-04-22 13:29 34.99188 -12.29406 33037 ft 408 kts 217°
2026-04-22 13:29 34.94537 -12.33380 33036 ft 408 kts 217°
2026-04-22 13:30 34.89877 -12.37350 33033 ft 408 kts 217°
2026-04-22 13:30 34.85219 -12.41316 33037 ft 408 kts 217°
2026-04-22 13:31 34.80557 -12.45277 33038 ft 408 kts 217°
2026-04-22 13:31 34.75897 -12.49233 33033 ft 408 kts 217°
2026-04-22 13:32 34.71266 -12.53160 33031 ft 408 kts 217°
2026-04-22 13:32 34.66612 -12.57105 33027 ft 408 kts 217°
2026-04-22 13:33 34.61950 -12.61050 33030 ft 408 kts 217°
2026-04-22 13:33 34.57281 -12.64994 33034 ft 408 kts 217°
2026-04-22 13:34 34.52614 -12.68930 33033 ft 408 kts 217°
2026-04-22 13:34 34.47950 -12.72858 33026 ft 408 kts 217°
2026-04-22 13:35 34.43285 -12.76781 33030 ft 408 kts 217°
2026-04-22 13:35 34.38656 -12.80668 33031 ft 408 kts 217°
2026-04-22 13:36 34.33988 -12.84581 33033 ft 408 kts 217°
2026-04-22 13:36 34.29326 -12.88485 33032 ft 407 kts 217°
2026-04-22 13:37 34.24663 -12.92389 33030 ft 407 kts 217°
2026-04-22 13:37 34.20019 -12.96309 33031 ft 408 kts 217°
2026-04-22 13:38 34.15360 -13.00233 33031 ft 408 kts 217°
2026-04-22 13:38 34.08381 -13.06108 33031 ft 407 kts 217°
2026-04-22 13:39 34.03730 -13.10017 33032 ft 407 kts 217°
2026-04-22 13:39 33.99081 -13.13919 33032 ft 407 kts 217°
2026-04-22 13:40 33.94464 -13.17794 33031 ft 407 kts 217°
2026-04-22 13:40 33.89813 -13.21685 33032 ft 407 kts 217°
2026-04-22 13:41 33.85165 -13.25563 33036 ft 407 kts 217°
2026-04-22 13:41 33.80514 -13.29441 33034 ft 406 kts 217°
2026-04-22 13:42 33.75865 -13.33313 33037 ft 406 kts 217°
2026-04-22 13:42 33.71220 -13.37182 33036 ft 406 kts 217°
2026-04-22 13:43 33.66566 -13.41052 33036 ft 406 kts 217°
2026-04-22 13:43 33.61945 -13.44889 33034 ft 406 kts 217°
2026-04-22 13:44 33.57289 -13.48748 33031 ft 406 kts 217°
2026-04-22 13:44 33.52632 -13.52600 33034 ft 406 kts 217°
2026-04-22 13:45 33.47978 -13.56450 33030 ft 406 kts 217°
2026-04-22 13:45 33.43316 -13.60299 33037 ft 406 kts 217°
2026-04-22 13:46 33.38667 -13.64133 33043 ft 406 kts 217°
2026-04-22 13:46 33.34045 -13.67940 33034 ft 406 kts 217°
2026-04-22 13:47 33.29392 -13.71767 33043 ft 406 kts 217°
2026-04-22 13:47 33.24735 -13.75591 33030 ft 406 kts 217°
2026-04-22 13:48 33.20085 -13.79406 33037 ft 406 kts 217°
2026-04-22 13:48 33.15425 -13.83224 33034 ft 406 kts 217°
2026-04-22 13:49 33.10761 -13.87024 33044 ft 406 kts 217°
2026-04-22 13:49 33.06090 -13.90810 33032 ft 406 kts 217°
2026-04-22 13:50 33.01424 -13.94591 33038 ft 406 kts 217°
2026-04-22 13:50 32.96753 -13.98370 33045 ft 406 kts 217°
2026-04-22 13:51 32.92081 -14.02148 33033 ft 405 kts 217°
2026-04-22 13:51 32.87416 -14.05912 33031 ft 405 kts 217°
2026-04-22 13:52 32.82775 -14.09656 33044 ft 405 kts 217°
2026-04-22 13:52 32.78108 -14.13415 33033 ft 405 kts 217°
2026-04-22 13:53 32.73430 -14.17174 33028 ft 405 kts 217°
2026-04-22 13:53 32.68754 -14.20921 33041 ft 405 kts 217°
2026-04-22 13:54 32.64080 -14.24678 33029 ft 405 kts 217°
2026-04-22 13:54 32.59407 -14.28425 33037 ft 405 kts 217°
2026-04-22 13:55 32.54733 -14.32164 33031 ft 405 kts 217°
2026-04-22 13:55 32.50080 -14.35882 33027 ft 405 kts 217°
2026-04-22 13:56 32.45396 -14.39617 33037 ft 406 kts 217°
2026-04-22 13:56 32.40717 -14.43347 33030 ft 405 kts 217°
2026-04-22 13:57 32.36033 -14.47077 33036 ft 405 kts 217°
2026-04-22 13:57 32.31354 -14.50799 33035 ft 405 kts 217°
2026-04-22 13:58 32.26677 -14.54509 33035 ft 405 kts 217°
2026-04-22 13:58 32.22025 -14.58198 33037 ft 405 kts 217°
2026-04-22 13:59 32.17345 -14.61906 33034 ft 405 kts 217°
2026-04-22 13:59 32.12659 -14.65612 33030 ft 405 kts 217°
2026-04-22 14:00 32.07968 -14.69317 33027 ft 405 kts 217°
2026-04-22 14:00 32.03288 -14.73010 33040 ft 405 kts 217°
2026-04-22 14:01 31.98603 -14.76703 33039 ft 405 kts 217°
2026-04-22 14:01 31.93922 -14.80387 33032 ft 405 kts 217°
2026-04-22 14:02 31.89278 -14.84036 33028 ft 400 kts 217°
2026-04-22 14:02 31.84653 -14.87666 33034 ft 400 kts 217°
2026-04-22 14:03 31.80018 -14.91302 33032 ft 400 kts 217°
2026-04-22 14:03 31.76165 -14.94322 33033 ft 402 kts 217°
2026-04-22 14:04 31.71468 -14.97996 33033 ft 403 kts 217°
2026-04-22 14:04 31.66820 -15.01627 33030 ft 404 kts 217°
2026-04-22 14:05 31.62131 -15.05287 33032 ft 405 kts 217°
2026-04-22 14:06 31.55085 -15.10778 33029 ft 406 kts 217°
2026-04-22 14:06 31.50372 -15.14445 33029 ft 407 kts 217°
2026-04-22 14:07 31.45645 -15.18118 33026 ft 408 kts 217°
2026-04-22 14:07 31.40911 -15.21792 33023 ft 409 kts 217°
2026-04-22 14:08 31.36194 -15.25449 33028 ft 409 kts 217°
2026-04-22 14:08 31.31445 -15.29125 33024 ft 410 kts 217°
2026-04-22 14:09 31.26497 -15.32494 33019 ft 412 kts 212°
2026-04-22 14:09 31.21450 -15.35701 33025 ft 413 kts 212°
2026-04-22 14:10 31.16402 -15.38914 33027 ft 414 kts 212°
2026-04-22 14:10 31.11344 -15.42135 33024 ft 414 kts 212°
2026-04-22 14:11 31.06273 -15.45362 33020 ft 415 kts 212°
2026-04-22 14:11 31.01201 -15.48584 33018 ft 416 kts 212°
2026-04-22 14:12 30.96137 -15.51800 33022 ft 417 kts 212°
2026-04-22 14:12 30.91032 -15.55038 33023 ft 418 kts 212°
2026-04-22 14:13 30.85917 -15.58277 33024 ft 419 kts 212°
2026-04-22 14:13 30.80785 -15.61522 33019 ft 420 kts 212°
2026-04-22 14:14 30.75651 -15.64767 33023 ft 420 kts 212°
2026-04-22 14:14 30.70502 -15.68012 33022 ft 421 kts 212°
2026-04-22 14:15 30.65378 -15.71239 33020 ft 422 kts 212°
2026-04-22 14:15 30.60217 -15.74482 33024 ft 423 kts 212°
2026-04-22 14:16 30.55043 -15.77734 33023 ft 423 kts 212°
2026-04-22 14:16 30.49869 -15.80981 33016 ft 421 kts 212°
2026-04-22 14:17 30.44708 -15.84216 33019 ft 421 kts 213°
2026-04-22 14:17 30.39553 -15.87445 33020 ft 422 kts 213°
2026-04-22 14:18 30.34387 -15.90677 33022 ft 422 kts 213°
2026-04-22 14:18 30.29212 -15.93910 33021 ft 423 kts 213°
2026-04-22 14:19 30.24030 -15.97145 33018 ft 423 kts 213°
2026-04-22 14:19 30.18857 -16.00366 33020 ft 426 kts 213°
2026-04-22 14:20 30.11016 -16.05245 33020 ft 427 kts 213°
2026-04-22 14:20 30.05779 -16.08499 33020 ft 428 kts 213°
2026-04-22 14:21 29.97919 -16.13378 33014 ft 429 kts 213°
2026-04-22 14:22 29.92714 -16.16597 33015 ft 410 kts 213°
2026-04-22 14:22 29.90258 -16.18111 33022 ft 404 kts 213°
2026-04-22 14:23 29.82839 -16.22700 33031 ft 403 kts 213°
2026-04-22 14:23 29.77894 -16.25756 33031 ft 403 kts 213°
2026-04-22 14:24 29.72958 -16.28799 33041 ft 403 kts 213°
2026-04-22 14:24 29.68017 -16.31840 33034 ft 403 kts 213°
2026-04-22 14:25 29.63073 -16.34885 33034 ft 403 kts 213°
2026-04-22 14:25 29.58259 -16.38135 33032 ft 397 kts 221°
2026-04-22 14:26 29.53983 -16.42136 33028 ft 396 kts 224°
2026-04-22 14:26 29.49770 -16.46145 33030 ft 395 kts 224°
2026-04-22 14:27 29.45523 -16.50152 33029 ft 395 kts 224°
2026-04-22 14:27 29.41279 -16.54149 33028 ft 395 kts 224°
2026-04-22 14:28 29.37029 -16.58148 33026 ft 394 kts 224°
2026-04-22 14:28 29.32788 -16.62133 33025 ft 394 kts 224°
2026-04-22 14:29 29.28553 -16.66107 33027 ft 394 kts 224°
2026-04-22 14:29 29.24315 -16.70081 33031 ft 393 kts 224°
2026-04-22 14:30 29.20084 -16.74045 33029 ft 393 kts 224°
2026-04-22 14:30 29.15855 -16.77999 33032 ft 392 kts 224°
2026-04-22 14:31 29.11646 -16.81929 33029 ft 392 kts 224°
2026-04-22 14:31 29.07415 -16.85877 33027 ft 392 kts 224°
2026-04-22 14:32 29.03189 -16.89818 33023 ft 391 kts 224°
2026-04-22 14:32 28.98967 -16.93751 33023 ft 391 kts 224°
2026-04-22 14:33 28.94745 -16.97675 33023 ft 391 kts 224°
2026-04-22 14:33 28.90553 -17.01572 33021 ft 391 kts 224°
2026-04-22 14:34 28.86339 -17.05484 33022 ft 390 kts 224°
2026-04-22 14:34 28.82122 -17.09395 33023 ft 390 kts 224°
2026-04-22 14:35 28.77913 -17.13294 33019 ft 389 kts 224°
2026-04-22 14:35 28.73707 -17.17186 33017 ft 389 kts 224°
2026-04-22 14:36 28.69509 -17.21070 33021 ft 389 kts 224°
2026-04-22 14:36 28.65295 -17.24963 33019 ft 388 kts 224°
2026-04-22 14:37 28.61100 -17.28834 33019 ft 388 kts 224°
2026-04-22 14:37 28.59045 -17.30725 32431 ft 385 kts 224°
2026-04-22 14:37 28.56931 -17.32663 31065 ft 398 kts 222°
2026-04-22 14:37 28.54578 -17.34455 29630 ft 416 kts 212°
2026-04-22 14:38 28.51882 -17.35770 28459 ft 426 kts 201°
2026-04-22 14:38 28.48971 -17.36463 27611 ft 429 kts 191°
2026-04-22 14:38 28.45978 -17.36497 26900 ft 431 kts 180°
2026-04-22 14:38 28.43012 -17.35903 26196 ft 434 kts 171°
2026-04-22 14:39 28.40096 -17.35036 25510 ft 433 kts 168°
2026-04-22 14:39 28.37337 -17.33622 24837 ft 440 kts 152°
2026-04-22 14:39 28.35009 -17.31341 24150 ft 448 kts 136°
2026-04-22 14:40 28.32544 -17.26200 23422 ft 442 kts 117°
2026-04-22 14:40 28.30938 -17.22043 23043 ft 418 kts 121°
2026-04-22 14:40 28.29617 -17.19172 22813 ft 401 kts 124°
2026-04-22 14:40 28.28268 -17.16469 22596 ft 386 kts 126°
2026-04-22 14:41 28.26954 -17.13914 22418 ft 372 kts 126°
2026-04-22 14:41 28.25602 -17.11481 22214 ft 357 kts 130°
2026-04-22 14:41 28.24201 -17.09180 21732 ft 354 kts 130°
2026-04-22 14:41 28.22798 -17.06895 21182 ft 353 kts 130°
2026-04-22 14:42 28.21401 -17.04615 20658 ft 351 kts 130°
2026-04-22 14:42 28.20012 -17.02349 20181 ft 348 kts 130°
2026-04-22 14:42 28.18634 -17.00101 19689 ft 347 kts 130°
2026-04-22 14:42 28.17227 -16.97899 19198 ft 342 kts 136°
2026-04-22 14:43 28.15458 -16.96207 18730 ft 328 kts 153°
2026-04-22 14:43 28.13483 -16.94940 18256 ft 325 kts 156°
2026-04-22 14:43 28.11497 -16.93731 17714 ft 323 kts 156°
2026-04-22 14:43 28.09523 -16.92518 17220 ft 321 kts 156°
2026-04-22 14:44 28.07567 -16.91308 16721 ft 319 kts 156°
2026-04-22 14:44 28.05635 -16.90098 16230 ft 317 kts 155°
2026-04-22 14:44 28.03717 -16.88893 15774 ft 314 kts 155°
2026-04-22 14:44 28.01811 -16.87698 15306 ft 312 kts 155°
2026-04-22 14:45 27.99920 -16.86513 14838 ft 310 kts 155°
2026-04-22 14:45 27.98034 -16.85328 14369 ft 309 kts 155°
2026-04-22 14:45 27.96161 -16.84154 13933 ft 307 kts 155°
2026-04-22 14:45 27.94296 -16.82988 13454 ft 305 kts 155°
2026-04-22 14:46 27.92442 -16.81827 12953 ft 304 kts 155°
2026-04-22 14:46 27.90605 -16.80672 12483 ft 301 kts 155°
2026-04-22 14:46 27.88802 -16.79540 12046 ft 299 kts 155°
2026-04-22 14:46 27.86993 -16.78403 11625 ft 296 kts 155°
2026-04-22 14:47 27.85199 -16.77280 11231 ft 293 kts 155°
2026-04-22 14:47 27.83415 -16.76160 10838 ft 293 kts 155°
2026-04-22 14:47 27.81627 -16.75044 10460 ft 294 kts 155°
2026-04-22 14:47 27.79837 -16.73927 10098 ft 293 kts 155°
2026-04-22 14:48 27.78062 -16.72818 9709 ft 290 kts 154°
2026-04-22 14:48 27.76426 -16.71499 9306 ft 292 kts 138°
2026-04-22 14:48 27.75296 -16.69578 8917 ft 299 kts 114°
2026-04-22 14:48 27.74941 -16.67269 8544 ft 303 kts 88°
2026-04-22 14:49 27.75425 -16.64948 8180 ft 304 kts 69°
2026-04-22 14:49 27.76270 -16.62790 8013 ft 299 kts 66°
2026-04-22 14:49 27.77136 -16.60655 7990 ft 299 kts 66°
2026-04-22 14:49 27.77977 -16.58505 8004 ft 299 kts 67°
2026-04-22 14:50 27.78797 -16.56354 7775 ft 298 kts 67°
2026-04-22 14:50 27.79338 -16.54924 7453 ft 299 kts 67°
2026-04-22 14:50 27.80403 -16.52100 7128 ft 288 kts 68°
2026-04-22 14:50 27.81148 -16.50081 7154 ft 269 kts 68°
2026-04-22 14:51 27.81854 -16.48180 7222 ft 260 kts 68°
2026-04-22 14:51 27.82548 -16.46297 7102 ft 259 kts 68°
2026-04-22 14:51 27.83239 -16.44424 6843 ft 257 kts 68°
2026-04-22 14:51 27.83929 -16.42565 6547 ft 255 kts 67°
2026-04-22 14:52 27.84392 -16.41321 6335 ft 254 kts 67°
2026-04-22 14:52 27.85079 -16.39483 6014 ft 251 kts 67°
2026-04-22 14:52 27.85756 -16.37674 5698 ft 249 kts 67°
2026-04-22 14:52 27.86417 -16.35907 5407 ft 246 kts 67°
2026-04-22 14:53 27.87080 -16.34132 5114 ft 244 kts 67°
2026-04-22 14:53 27.87739 -16.32373 4825 ft 242 kts 67°
2026-04-22 14:53 27.88390 -16.30635 4530 ft 240 kts 67°
2026-04-22 14:53 27.89083 -16.28917 4240 ft 239 kts 58°
2026-04-22 14:54 27.90288 -16.27685 3957 ft 236 kts 21°
2026-04-22 14:54 27.91886 -16.27511 3770 ft 233 kts 345°
2026-04-22 14:54 27.93391 -16.28168 3643 ft 232 kts 334°
2026-04-22 14:54 27.94855 -16.28947 3521 ft 232 kts 334°
2026-04-22 14:55 27.96325 -16.29703 3397 ft 232 kts 335°
2026-04-22 14:55 27.97798 -16.30435 3274 ft 231 kts 335°
2026-04-22 14:55 27.99256 -16.31146 3136 ft 231 kts 335°
2026-04-22 14:55 28.00728 -16.31855 2997 ft 230 kts 336°
2026-04-22 14:56 28.02198 -16.32560 2860 ft 226 kts 336°
2026-04-22 14:56 28.03614 -16.33236 2672 ft 216 kts 336°
2026-04-22 14:56 28.04987 -16.33890 2494 ft 214 kts 336°
2026-04-22 14:56 28.06358 -16.34542 2508 ft 214 kts 336°
2026-04-22 14:57 28.07680 -16.35169 2526 ft 196 kts 336°
2026-04-22 14:57 28.08900 -16.35749 2506 ft 188 kts 336°
2026-04-22 14:57 28.10103 -16.36331 2500 ft 188 kts 333°
2026-04-22 14:57 28.11047 -16.37292 2455 ft 185 kts 294°
2026-04-22 14:58 28.11115 -16.38704 2475 ft 184 kts 254°
2026-04-22 14:58 28.10622 -16.40037 2499 ft 184 kts 244°
2026-04-22 14:58 28.10152 -16.41131 2498 ft 183 kts 244°
2026-04-22 14:58 28.09632 -16.42434 2496 ft 174 kts 246°
2026-04-22 14:59 28.09171 -16.43667 2448 ft 173 kts 247°
2026-04-22 14:59 28.08723 -16.44935 2278 ft 173 kts 248°
2026-04-22 14:59 28.08283 -16.46200 2073 ft 172 kts 248°
2026-04-22 14:59 28.07842 -16.47468 1865 ft 174 kts 248°
2026-04-22 15:00 28.07408 -16.48717 1747 ft 168 kts 248°
2026-04-22 15:00 28.06997 -16.49906 1554 ft 155 kts 247°
2026-04-22 15:00 28.06613 -16.50990 1232 ft 140 kts 247°
2026-04-22 15:00 28.06282 -16.52014 917 ft 138 kts 246°
2026-04-22 15:01 28.05935 -16.53011 767 ft 137 kts 245°
2026-04-22 15:01 28.05578 -16.54024 589 ft 140 kts 246°
2026-04-22 15:01 28.05219 -16.55048 393 ft 140 kts 246°
2026-04-22 15:01 28.04868 -16.56055 229 ft 136 kts 245°
2026-04-22 15:02 28.04546 -16.56969 209 ft 106 kts 251°
2026-04-22 15:02 28.04359 -16.57515 200 ft 44 kts 250°
2026-04-22 15:02 28.04304 -16.57788 200 ft 32 kts 267°
2026-04-22 15:02 28.04291 -16.58028 225 ft 20 kts 266°
2026-04-22 15:03 28.04319 -16.58166 229 ft 19 kts 317°
2026-04-22 15:03 28.04420 -16.58215 230 ft 10 kts
2026-04-22 15:03 28.04465 -16.58143 231 ft 13 kts 72°
2026-04-22 15:03 28.04498 -16.58044 230 ft 14 kts 68°
2026-04-22 15:04 28.04538 -16.57932 230 ft 16 kts 68°
2026-04-22 15:04 28.04574 -16.57817 230 ft 16 kts 69°
2026-04-22 15:04 28.04614 -16.57700 231 ft 16 kts 69°
2026-04-22 15:04 28.04629 -16.57655 230 ft 3 kts 69°
2026-04-22 15:05 28.04637 -16.57630 231 ft 4 kts 69°
2026-04-22 15:05 28.04659 -16.57604 230 ft 5 kts
2026-04-22 15:05 28.04700 -16.57617 231 ft 7 kts 338°
2026-04-22 15:05 28.04725 -16.57628 231 ft 0 kts 338°